weather.gov     
National Weather Service

Regional Weather Roundup
NWS Homepage
This page is being discontinued on March 12, 2014.
The same data is available at this site. Please update your bookmarks.
Thank you, and we apologize for the inconvenience.
Please send an email to SR-SRH.Webmaster@noaa.gov with any concerns.


Current Version
Previous Version:    01  02  03  04  05  06  07  08  09  10  11  12  13  14  15  16  17  18  19  20  21  22  23  24  25  26  27  
[Printable]
903
ASUS42 KTBW 230810
RWRFL
FLORIDA REGIONAL WEATHER ROUNDUP
NATIONAL WEATHER SERVICE TAMPA BAY RUSKIN FL
400 AM EDT WED APR 23 2014

NOTE: "FAIR" INDICATES FEW OR NO CLOUDS BELOW 12,000 FEET WITH NO
SIGNIFICANT WEATHER AND/OR OBSTRUCTIONS TO VISIBILITY.


FLZ001>010-012>015-112-114-115-230900-
PANHANDLE FLORIDA

CITY           SKY/WX    TMP DP  RH WIND       PRES   REMARKS
PENSACOLA      CLEAR     65  62  90 NW3       29.89S FOG
PENSACOLA NAS  PTCLDY    64  64 100 NW5       29.89S FOG
MILTON NAS     CLEAR     63  61  93 NW5       29.89S FOG
CRESTVIEW      CLEAR     64  62  93 N3        29.90S FOG
DUKE FIELD     FAIR      61  61 100 NW2       29.89S
VALPARAISO     CLEAR     63  63 100 NW5       29.89S FOG
MARY ESTHER    CLEAR     63  59  88 N3        29.88S HAZE
PANAMA CITY    CLOUDY    66  64  93 CALM      29.87F FOG
TYNDALL AFB    CLOUDY    67  67  98 W6        29.89S
APALACHICOLA   MOCLDY    67  62  84 W5        29.89S

STATION/POSITION SKY/WX   TEMP    WIND        PRES    WAVE   SWELL
                          AIR SEA DIR/SP/G            HT/PER HT/PER
                          (F)     (DEG/KT/KT) (MB)    (FT/S) (FT/S)
30.1N   87.6W              68 68  330/ 10/ 10 1012.2F   1
29.2N   88.2W              69 68  270/ 12/ 14 1012.7F
28.8N   86.0W              68 69  270/  8/ 10 1013.2F   2/ 4
PANAMA CITY BEAC           67 67  280/  6/  8 1011.7R
CAPE SAN BLAS    NOT AVBL
TOWER C                    67     270/  9/ 10 1012.4F
28.5N   84.5W              68 69  310/ 10/ 12 1012.5F   1/ 3

$$
FLZ011-016>038-118-127-128-134-139-239-230900-
NORTH FLORIDA

CITY           SKY/WX    TMP DP  RH WIND       PRES   REMARKS
MARIANNA       CLOUDY    63  62  97 CALM      29.87F
TALLAHASSEE    CLEAR     59  55  87 CALM      29.88S
PERRY          CLEAR     61  61 100 W3        29.90R
CROSS CITY       N/A     60  58  92 CALM      29.89S
GAINESVILLE    CLEAR     61  60  97 W5        29.88F
MAYPORT NAS    CLEAR     66  60  81 W6        29.86S
JACKSONVILLE   CLEAR     61  60  97 W6        29.85F
JAX NAS        PTCLDY    65  60  84 W6        29.87F
JAX CRAIG      CLEAR     67  60  78 W5        29.86F
JAX CECIL      CLEAR     61  59  94 SW3       29.88R
FERNANDINA BEA FAIR      64  61  88 SW6       29.84S
ST AUGUSTINE   CLEAR     63  60  90 W7        29.88S

STATION/POSITION SKY/WX   TEMP    WIND        PRES    WAVE   SWELL
                          AIR SEA DIR/SP/G            HT/PER HT/PER
                          (F)     (DEG/KT/KT) (MB)    (FT/S) (FT/S)
SHELL POINT                64     250/  4/  5 1011.3F
KEATON BEACH               66     270/ 10/ 12 1012.2F
CEDAR KEY                  67     300/  6/ 10 1012.7S
FERNANDINA                 65 66  240/  7/ 10 1010.2R
30.7N   81.3W                 66                N/A     2/10   2/11
MAYPORT                    65 65  270/  8/ 11   N/A
31.4N   80.9W              65 64  250/ 10/ 12 1009.5F   2/ 9   2/ 9
ST AUGUSTINE               63     270/  8/ 10 1012.0R

$$
FLZ040-043>046-052-053-057-058-063-144-230900-
INTERIOR CENTRAL FLORIDA

CITY           SKY/WX    TMP DP  RH WIND       PRES   REMARKS
OCALA          CLOUDY    57  54  88 CALM      29.90S
THE VILLAGES   FOG       61  61 100 CALM      29.90R VSB<1/4
LEESBURG       MOCLDY    63  62  97 NW5       29.90S
SANFORD        CLEAR     63  61  93 W7        29.88S
ORLANDO EXEC   PTCLDY    65  60  84 W6        29.88S
ORLANDO INTL   PTCLDY    65  60  84 NW5       29.88F
WINTER HAVEN     N/A     63  59  87 MISG      29.90F
LAKELAND       PTCLDY    61  59  94 CALM      29.90S
BARTOW         FAIR      63  63 100 W5        29.90F
OKEECHOBEE     PTCLDY    59  59 100 CALM      29.90S

$$
FLZ041-047-054-059-064-141-147-230900-
EAST CENTRAL FLORIDA

CITY           SKY/WX    TMP DP  RH WIND       PRES   REMARKS
DAYTONA BEACH  PTCLDY    61  60  97 W7        29.89R
DELAND         PTSUNNY   63  61  94 W5        29.90R
JFK SPACE CTR  MOCLDY    64  61  89 NW5       29.87F
CAPE CANAVERAL MOCLDY    66  61  85 NW7       29.86F
PATRICK AFB    PTCLDY    68  63  83 W8        29.87F
MELBOURNE      PTCLDY    63  61  93 W5        29.87F
VERO BEACH     PTCLDY    63  62  97 W6        29.88R
FT PIERCE      MOCLDY    63  60  90 W5        29.88S
STUART         PTCLDY    64  63  94 W6        29.89S

STATION/POSITION SKY/WX   TEMP    WIND        PRES    WAVE   SWELL
                          AIR SEA DIR/SP/G            HT/PER HT/PER
                          (F)     (DEG/KT/KT) (MB)    (FT/S) (FT/S)
28.5N   80.2W              69 76  290/ 10/ 12 1011.6F
28.9N   78.5W              74 75  240/ 12/ 16 1010.8F   4/ 9   3/ 9
TRIDENT PIER               67 74  270/  4/  5 1010.8F
28.4N   80.5W                 71                N/A     2/10
27.6N   80.2W                 73                N/A     3/ 9   2/11

$$
FLZ050-056-061-142-242-148-248-149-249-151-251-155-255-
160-260-230900-
WEST CENTRAL FLORIDA

CITY           SKY/WX    TMP DP  RH WIND       PRES   REMARKS
CRYSTAL RIVER  PTSUNNY   64  61  88 W3        29.89S
INVERNESS      CLOUDY    57  55  94 CALM      29.90S
BROOKSVILLE    PTCLDY    58  57  97 CALM      29.90F
CLEARWATER     PTCLDY    64  60  87 W6        29.90S
TAMPA INTL     PTCLDY    67  62  84 W9        29.90F
TAMPA EXEC       N/A     61  57  88 MISG        N/A
PLANT CITY     PTCLDY    63 N/A N/A W3        29.92S
MACDILL AFB    CLEAR     65  65  99 NW5       29.90S
PETER O KNIGHT PTCLDY    68  64  88 CALM      29.90S
ST PETERSBURG  CLEAR     68  64  87 W7        29.89S
SARASOTA       MOCLDY    66  62  87 NW6       29.89F
VENICE           N/A     66  63  88 W7        29.91F

STATION/POSITION SKY/WX   TEMP    WIND        PRES    WAVE   SWELL
                          AIR SEA DIR/SP/G            HT/PER HT/PER
                          (F)     (DEG/KT/KT) (MB)    (FT/S) (FT/S)
CEDAR KEY                  67     300/  6/ 10 1012.7S
28.5N   84.5W              68 69  310/ 10/ 12 1012.5F   1/ 3
27.3N   84.3W                 72                N/A     1
CLEARWATER BEACH           68 72  260/  9/ 11 1012.0S
MIDDLE TAMPA BAY           69     290/  9/ 12 1012.6F
VENICE                     69 73  290/  7/  8 1012.0F

$$
FLZ066-069-070-075>078-162-262-165-265-230900-
SOUTHWEST FLORIDA AND KEYS

CITY           SKY/WX    TMP DP  RH WIND       PRES   REMARKS
PUNTA GORDA    PTCLDY    65  61  87 NW6       29.92S
FT MYERS       PTCLDY    66  62  87 CALM      29.90F
SOUTHWEST INTL CLEAR     63  60  90 CALM      29.91S
NAPLES         PTCLDY    69  63  81 CALM      29.90F
MARATHON       PTCLDY    73  66  78 NW7       29.91S
KEY WEST NAS   PTCLDY    72  65  78 NW8       29.91S
KEY WEST INTL  MOCLDY    72  65  78 NW5       29.91F

STATION/POSITION SKY/WX   TEMP    WIND        PRES    WAVE   SWELL
                          AIR SEA DIR/SP/G            HT/PER HT/PER
                          (F)     (DEG/KT/KT) (MB)    (FT/S) (FT/S)
VENICE                     69 73  290/  7/  8 1012.0F
NAPLES                     70 77  310/ 10/ 11 1013.0R
26.0N   85.6W              75 80   10/  2/  4 1012.8F   1/ 8
DRY TORTUGAS     NOT AVBL
NW FL BAY                  74     330/ 10/ 12 1013.0F
SOMBRERO KEY               74     330/  8/ 10 1013.4S
LONG KEY                   74 79  320/ 11/ 13 1013.4R
MOLASSES REEF              72 78  340/ 10/ 11 1012.4S

$$
FLZ067-068-071>074-168-172>174-230900-
SOUTHEAST FLORIDA

CITY           SKY/WX    TMP DP  RH WIND       PRES   REMARKS
W PALM BEACH   PTCLDY    67  62  84 W6        29.87F
FT LAUDER-EXEC CLEAR     68  62  81 W6        29.89S
FT LAUDERDALE  PTCLDY    69  62  78 W6        29.88F
POMPANO BEACH  CLEAR     68  63  84 W7        29.89S
PEMBROKE PINES PTCLDY    68  62  81 W6        29.91S
OPA LOCKA      PTCLDY    68  61  78 W9        29.90S
MIAMI          PTCLDY    69  62  78 W5        29.90F
WEST KENDALL   CLEAR     64  63  96 NW6       29.91S
HOMESTEAD      CLEAR     67  62  82 NW7       29.90S

STATION/POSITION SKY/WX   TEMP    WIND        PRES    WAVE   SWELL
                          AIR SEA DIR/SP/G            HT/PER HT/PER
                          (F)     (DEG/KT/KT) (MB)    (FT/S) (FT/S)
PORT EVERGLADES            70     280/  9/ 11 1011.9
VIRGINIA KEY               71 78  310/  5/ 10 1012.2F
LAKE WORTH                 71 79  300/  5/  6 1011.3F
FOWEY ROCKS                71 77  310/ 15/ 17 1012.3S
SETTLEMENT POINT           77     220/  8/  9 1011.8F

$$





U.S. Dept. of Commerce
NOAA National Weather Service
1325 East West Highway
Silver Spring, MD 20910
E-mail: w-nws.webmaster@noaa.gov
Page last modified: May 16, 2007
NATIONAL WEATHER SERVICE: for Safety, for Work, for Fun - FOR LIFE